Time,TemperatureF,DewpointF,PressureIn,WindDirection,WindDirectionDegrees,WindSpeedMPH,WindSpeedGustMPH,Humidity,HourlyPrecipIn,Conditions,Clouds,dailyrainin,SoftwareType,DateUTC
2013-06-21 00:01:00,76.9,66.8,30.10,SSW,204,3.6,4.0,71,0.00,,---,0.00,VWS V14.00,2013-06-21 04:01:00,
2013-06-21 00:02:00,76.9,67.2,30.10,South,179,2.7,4.0,72,0.00,,---,0.00,VWS V14.00,2013-06-21 04:02:00,
2013-06-21 00:03:00,76.9,67.2,30.10,SSW,198,3.1,4.9,72,0.00,,---,0.00,VWS V14.00,2013-06-21 04:03:00,
2013-06-21 00:08:00,76.7,67.4,30.10,SSW,198,0.0,4.9,73,0.00,,---,0.00,VWS V14.00,2013-06-21 04:08:00,
2013-06-21 00:13:00,76.4,67.5,30.10,SSW,213,0.0,0.0,74,0.00,,---,0.00,VWS V14.00,2013-06-21 04:13:00,
2013-06-21 00:18:00,75.8,68.1,30.10,SSW,210,0.0,0.0,77,0.00,,---,0.60,VWS V14.00,2013-06-21 04:18:00,
2013-06-21 00:24:00,75.5,68.5,30.10,SSE,165,0.0,4.0,79,0.00,,---,0.60,VWS V14.00,2013-06-21 04:24:00,
2013-06-21 00:29:00,75.1,68.5,30.10,SW,216,0.0,4.0,80,0.00,,---,0.60,VWS V14.00,2013-06-21 04:29:00,
2013-06-21 00:34:00,74.6,68.7,30.10,SSW,209,0.0,0.0,82,0.00,,---,0.60,VWS V14.00,2013-06-21 04:34:00,
2013-06-21 00:39:00,74.2,69.1,30.10,SSW,209,0.0,0.0,84,0.00,,---,0.60,VWS V14.00,2013-06-21 04:39:00,
2013-06-21 00:44:00,74.0,69.6,30.10,SSW,209,0.0,0.0,86,0.00,,---,0.60,VWS V14.00,2013-06-21 04:44:00,
2013-06-21 00:49:00,73.8,69.7,30.10,SSW,209,0.0,0.0,87,0.00,,---,0.60,VWS V14.00,2013-06-21 04:49:00,
2013-06-21 00:54:00,73.7,69.9,30.10,SW,220,0.0,0.0,88,0.00,,---,0.60,VWS V14.00,2013-06-21 04:54:00,
2013-06-21 00:59:00,73.5,70.0,30.13,SW,220,0.0,0.0,89,0.00,,---,0.60,VWS V14.00,2013-06-21 04:59:00,
2013-06-21 01:04:00,73.5,70.0,30.13,SW,220,0.0,0.0,89,0.00,,---,0.00,VWS V14.00,2013-06-21 05:04:00,
2013-06-21 01:09:00,73.3,70.2,30.13,SW,220,0.0,0.0,90,0.00,,---,0.00,VWS V14.00,2013-06-21 05:09:00,
2013-06-21 01:14:00,73.1,70.3,30.13,SW,233,0.0,0.0,91,0.00,,---,0.00,VWS V14.00,2013-06-21 05:14:00,
2013-06-21 01:19:00,73.1,70.3,30.13,SW,232,0.0,0.0,91,0.00,,---,0.00,VWS V14.00,2013-06-21 05:19:00,
2013-06-21 01:24:00,72.9,70.5,30.13,SW,226,0.0,0.0,92,0.00,,---,0.00,VWS V14.00,2013-06-21 05:24:00,
2013-06-21 01:29:00,72.9,70.8,30.13,SW,226,0.0,0.0,93,0.00,,---,0.00,VWS V14.00,2013-06-21 05:29:00,
2013-06-21 01:35:00,72.8,70.9,30.13,SW,226,0.0,0.0,94,0.00,,---,0.00,VWS V14.00,2013-06-21 05:35:00,
2013-06-21 01:40:00,72.8,70.9,30.13,SW,234,0.0,0.0,94,0.00,,---,0.00,VWS V14.00,2013-06-21 05:40:00,
2013-06-21 01:45:00,72.8,71.2,30.13,SW,234,0.0,0.0,95,0.00,,---,0.00,VWS V14.00,2013-06-21 05:45:00,
2013-06-21 01:50:00,72.8,71.2,30.13,SW,234,0.0,0.0,95,0.00,,---,0.00,VWS V14.00,2013-06-21 05:50:00,
2013-06-21 01:55:00,72.8,71.2,30.13,SW,234,0.0,0.0,95,0.00,,---,0.00,VWS V14.00,2013-06-21 05:55:00,
2013-06-21 02:00:00,72.8,71.2,30.13,SW,234,0.0,0.0,95,0.00,,---,0.00,VWS V14.00,2013-06-21 06:00:00,
2013-06-21 02:05:00,72.8,71.2,30.13,SW,233,0.0,0.0,95,0.00,,---,0.00,VWS V14.00,2013-06-21 06:05:00,
2013-06-21 02:10:00,72.8,71.2,30.13,SW,233,0.0,0.0,95,0.00,,---,0.00,VWS V14.00,2013-06-21 06:10:00,
2013-06-21 02:15:00,72.9,71.4,30.13,WSW,237,0.0,0.0,95,0.00,,---,0.00,VWS V14.00,2013-06-21 06:15:00,
2013-06-21 02:20:00,72.8,71.2,30.13,WSW,237,0.0,0.0,95,0.00,,---,0.00,VWS V14.00,2013-06-21 06:20:00,
2013-06-21 02:25:00,72.8,71.2,30.13,WSW,237,0.0,0.0,95,0.00,,---,0.00,VWS V14.00,2013-06-21 06:25:00,
2013-06-21 02:30:00,72.8,71.2,30.13,WSW,237,0.0,0.0,95,0.00,,---,0.00,VWS V14.00,2013-06-21 06:30:00,
2013-06-21 02:36:00,72.8,71.2,30.13,WSW,237,0.0,0.0,95,0.00,,---,0.00,VWS V14.00,2013-06-21 06:36:00,
2013-06-21 02:41:00,72.6,70.8,30.13,WSW,237,0.0,0.0,94,0.00,,---,0.00,VWS V14.00,2013-06-21 06:41:00,
2013-06-21 02:46:00,72.6,70.8,30.13,WSW,237,0.0,0.0,94,0.00,,---,0.00,VWS V14.00,2013-06-21 06:46:00,
2013-06-21 02:51:00,72.4,70.9,30.13,WSW,237,0.0,0.0,95,0.00,,---,0.00,VWS V14.00,2013-06-21 06:51:00,
2013-06-21 02:56:00,72.0,70.8,30.13,WSW,237,0.0,0.0,96,0.00,,---,0.00,VWS V14.00,2013-06-21 06:56:00,
2013-06-21 03:01:00,72.0,70.8,30.13,WSW,237,0.0,0.0,96,0.00,,---,0.00,VWS V14.00,2013-06-21 07:01:00,
2013-06-21 03:06:00,71.9,71.0,30.13,WSW,237,0.0,0.0,97,0.00,,---,0.00,VWS V14.00,2013-06-21 07:06:00,
2013-06-21 03:11:00,71.9,71.3,30.13,WSW,237,0.0,0.0,98,0.00,,---,0.00,VWS V14.00,2013-06-21 07:11:00,
2013-06-21 03:16:00,71.9,71.3,30.13,WSW,237,0.0,0.0,98,0.00,,---,0.00,VWS V14.00,2013-06-21 07:16:00,
2013-06-21 03:21:00,71.7,71.1,30.13,WSW,237,0.0,0.0,98,0.00,,---,0.00,VWS V14.00,2013-06-21 07:21:00,
2013-06-21 03:26:00,71.7,71.4,30.13,WSW,237,0.0,0.0,99,0.00,,---,0.00,VWS V14.00,2013-06-21 07:26:00,
2013-06-21 03:32:00,71.7,71.4,30.13,WSW,237,0.0,0.0,99,0.00,,---,0.00,VWS V14.00,2013-06-21 07:32:00,
2013-06-21 03:37:00,71.5,71.5,30.13,WSW,237,0.0,0.0,100,0.00,,---,0.00,VWS V14.00,2013-06-21 07:37:00,
2013-06-21 03:42:00,71.5,71.5,30.13,WSW,237,0.0,0.0,100,0.00,,---,0.00,VWS V14.00,2013-06-21 07:42:00,
2013-06-21 03:47:00,71.3,71.3,30.13,WSW,237,0.0,0.0,100,0.00,,---,0.00,VWS V14.00,2013-06-21 07:47:00,
2013-06-21 03:52:00,71.1,71.1,30.13,WSW,255,0.0,0.0,100,0.00,,---,0.00,VWS V14.00,2013-06-21 07:52:00,
2013-06-21 03:57:00,71.0,71.0,30.10,NE,38,0.0,0.0,100,0.00,,---,0.00,VWS V14.00,2013-06-21 07:57:00,
2013-06-21 04:02:00,71.0,71.0,30.10,NE,38,0.0,0.0,100,0.00,,---,0.00,VWS V14.00,2013-06-21 08:02:00,
2013-06-21 04:07:00,70.8,70.8,30.10,NE,38,0.0,0.0,100,0.00,,---,0.00,VWS V14.00,2013-06-21 08:07:00,
2013-06-21 04:13:00,71.0,71.0,30.10,NE,38,0.0,0.0,100,0.00,,---,0.00,VWS V14.00,2013-06-21 08:13:00,
2013-06-21 04:18:00,71.0,71.0,30.10,NE,38,0.0,0.0,100,0.00,,---,0.00,VWS V14.00,2013-06-21 08:18:00,
2013-06-21 04:23:00,71.0,71.0,30.10,NE,38,0.0,0.0,100,0.00,,---,0.00,VWS V14.00,2013-06-21 08:23:00,
2013-06-21 04:28:00,70.8,70.8,30.10,NE,38,0.0,0.0,100,0.00,,---,0.00,VWS V14.00,2013-06-21 08:28:00,
2013-06-21 04:33:00,70.8,70.8,30.10,NE,38,0.0,0.0,100,0.00,,---,0.00,VWS V14.00,2013-06-21 08:33:00,
2013-06-21 04:38:00,70.8,70.8,30.10,NE,38,0.0,0.0,100,0.00,,---,0.00,VWS V14.00,2013-06-21 08:38:00,
2013-06-21 04:43:00,70.8,70.8,30.10,NE,38,0.0,0.0,100,0.00,,---,0.00,VWS V14.00,2013-06-21 08:43:00,
2013-06-21 04:48:00,70.8,70.8,30.10,NE,38,0.0,0.0,100,0.00,,---,0.00,VWS V14.00,2013-06-21 08:48:00,
2013-06-21 04:53:00,70.6,70.6,30.10,NE,38,0.0,0.0,100,0.00,,---,0.00,VWS V14.00,2013-06-21 08:53:00,
2013-06-21 04:58:00,70.6,70.6,30.10,NE,38,0.0,0.0,100,0.00,,---,0.00,VWS V14.00,2013-06-21 08:58:00,
2013-06-21 05:03:00,70.4,70.4,30.10,NE,38,0.0,0.0,100,0.00,,---,0.00,VWS V14.00,2013-06-21 09:03:00,
2013-06-21 05:08:00,70.4,70.4,30.10,NE,38,0.0,0.0,100,0.00,,---,0.00,VWS V14.00,2013-06-21 09:08:00,
2013-06-21 05:13:00,70.2,70.2,30.10,NE,38,0.0,0.0,100,0.00,,---,0.00,VWS V14.00,2013-06-21 09:13:00,
2013-06-21 05:18:00,70.2,70.2,30.10,NE,38,0.0,0.0,100,0.00,,---,0.00,VWS V14.00,2013-06-21 09:18:00,
2013-06-21 05:23:00,70.2,70.2,30.10,NE,38,0.0,0.0,100,0.00,,---,0.00,VWS V14.00,2013-06-21 09:23:00,
2013-06-21 05:28:00,70.2,70.2,30.10,NE,38,0.0,0.0,100,0.00,,---,0.00,VWS V14.00,2013-06-21 09:28:00,
2013-06-21 05:33:00,70.1,70.1,30.10,NE,38,0.0,0.0,100,0.00,,---,0.00,VWS V14.00,2013-06-21 09:33:00,
2013-06-21 05:39:00,70.1,70.1,30.10,NE,38,0.0,0.0,100,0.00,,---,0.00,VWS V14.00,2013-06-21 09:39:00,
2013-06-21 05:44:00,70.1,70.1,30.10,NE,38,0.0,0.0,100,0.00,,---,0.00,VWS V14.00,2013-06-21 09:44:00,
2013-06-21 05:49:00,70.1,70.1,30.10,NE,38,0.0,0.0,100,0.00,,---,0.00,VWS V14.00,2013-06-21 09:49:00,
2013-06-21 05:54:00,70.1,70.1,30.10,NE,38,0.0,0.0,100,0.00,,---,0.00,VWS V14.00,2013-06-21 09:54:00,
2013-06-21 05:59:00,70.1,70.1,30.10,NE,38,0.0,0.0,100,0.00,,---,0.00,VWS V14.00,2013-06-21 09:59:00,
2013-06-21 06:04:00,70.1,70.1,30.10,NE,38,0.0,0.0,100,0.00,,---,0.00,VWS V14.00,2013-06-21 10:04:00,
2013-06-21 06:09:00,70.1,70.1,30.10,NE,38,0.0,0.0,100,0.00,,---,0.00,VWS V14.00,2013-06-21 10:09:00,
2013-06-21 06:14:00,70.1,70.1,30.10,NE,38,0.0,0.0,100,0.00,,---,0.00,VWS V14.00,2013-06-21 10:14:00,
2013-06-21 06:19:00,69.9,69.9,30.10,NE,38,0.0,0.0,100,0.00,,---,0.00,VWS V14.00,2013-06-21 10:19:00,
2013-06-21 06:24:00,69.9,69.9,30.10,NE,38,0.0,0.0,100,0.00,,---,0.00,VWS V14.00,2013-06-21 10:24:00,
2013-06-21 06:29:00,69.7,69.7,30.10,NE,38,0.0,0.0,100,0.00,,---,0.00,VWS V14.00,2013-06-21 10:29:00,
2013-06-21 06:34:00,69.5,69.5,30.10,NE,38,0.0,0.0,100,0.00,,---,0.00,VWS V14.00,2013-06-21 10:34:00,
2013-06-21 06:39:00,69.5,69.5,30.10,NE,38,0.0,0.0,100,0.00,,---,0.00,VWS V14.00,2013-06-21 10:39:00,
2013-06-21 06:44:00,69.3,69.3,30.10,NE,38,0.0,0.0,100,0.00,,---,0.00,VWS V14.00,2013-06-21 10:44:00,
2013-06-21 06:49:00,69.3,69.3,30.10,NE,38,0.0,0.0,100,0.00,,---,0.00,VWS V14.00,2013-06-21 10:49:00,
2013-06-21 06:55:00,69.3,69.3,30.10,NE,38,0.0,0.0,100,0.00,,---,0.00,VWS V14.00,2013-06-21 10:55:00,
2013-06-21 07:00:00,69.5,69.5,30.10,NE,38,0.0,0.0,100,0.00,,---,0.00,VWS V14.00,2013-06-21 11:00:00,
2013-06-21 07:05:00,69.7,69.7,30.10,NE,38,0.0,0.0,100,0.00,,---,0.00,VWS V14.00,2013-06-21 11:05:00,
2013-06-21 07:10:00,69.7,69.7,30.10,NE,38,0.0,0.0,100,0.00,,---,0.00,VWS V14.00,2013-06-21 11:10:00,
2013-06-21 07:15:00,69.9,69.9,30.10,NE,38,0.0,0.0,100,0.00,,---,0.00,VWS V14.00,2013-06-21 11:15:00,
2013-06-21 07:20:00,70.1,70.1,30.10,NE,38,0.0,0.0,100,0.00,,---,0.00,VWS V14.00,2013-06-21 11:20:00,
2013-06-21 07:25:00,70.4,70.4,30.10,NE,38,0.0,0.0,100,0.00,,---,0.00,VWS V14.00,2013-06-21 11:25:00,
2013-06-21 07:30:00,71.0,71.0,30.13,NE,38,0.0,0.0,100,0.00,,---,0.00,VWS V14.00,2013-06-21 11:30:00,
2013-06-21 07:35:00,71.5,71.5,30.13,NE,40,0.0,0.0,100,0.00,,---,0.00,VWS V14.00,2013-06-21 11:35:00,
2013-06-21 07:41:00,72.2,72.2,30.13,NE,40,0.0,0.0,100,0.00,,---,0.00,VWS V14.00,2013-06-21 11:41:00,
2013-06-21 07:46:00,72.6,72.6,30.13,NE,40,0.0,0.0,100,0.00,,---,0.00,VWS V14.00,2013-06-21 11:46:00,
2013-06-21 07:51:00,73.1,73.1,30.13,NE,40,0.0,0.0,100,0.00,,---,0.00,VWS V14.00,2013-06-21 11:51:00,
2013-06-21 07:56:00,73.5,73.5,30.13,NE,37,0.0,0.0,100,0.00,,---,0.00,VWS V14.00,2013-06-21 11:56:00,
2013-06-21 08:01:00,74.0,74.0,30.13,NE,47,0.0,0.0,100,0.00,,---,0.00,VWS V14.00,2013-06-21 12:01:00,
2013-06-21 08:06:00,74.6,74.3,30.13,NE,38,0.0,0.0,99,0.00,,---,0.00,VWS V14.00,2013-06-21 12:06:00,
2013-06-21 08:11:00,75.3,74.4,30.13,NE,39,0.0,0.0,97,0.00,,---,0.00,VWS V14.00,2013-06-21 12:11:00,
2013-06-21 08:16:00,75.6,73.5,30.13,NE,39,0.0,0.0,93,0.00,,---,0.00,VWS V14.00,2013-06-21 12:16:00,
2013-06-21 08:21:00,76.0,73.2,30.13,NE,39,0.0,0.0,91,0.00,,---,0.00,VWS V14.00,2013-06-21 12:21:00,
2013-06-21 08:26:00,76.4,73.2,30.13,NE,39,0.0,0.0,90,0.00,,---,0.00,VWS V14.00,2013-06-21 12:26:00,
2013-06-21 08:32:00,76.9,73.1,30.13,NE,49,0.0,0.0,88,0.00,,---,0.00,VWS V14.00,2013-06-21 12:32:00,
2013-06-21 08:37:00,77.3,72.4,30.13,SSW,209,3.6,4.0,85,0.00,,---,0.00,VWS V14.00,2013-06-21 12:37:00,
2013-06-21 08:42:00,77.6,72.4,30.13,SSW,209,0.0,0.0,84,0.00,,---,0.00,VWS V14.00,2013-06-21 12:42:00,
2013-06-21 08:47:00,78.0,72.0,30.13,North,4,0.0,4.0,82,0.00,,---,0.00,VWS V14.00,2013-06-21 12:47:00,
2013-06-21 08:52:00,78.3,71.7,30.13,East,91,0.0,0.0,80,0.00,,---,0.00,VWS V14.00,2013-06-21 12:52:00,
2013-06-21 08:57:00,78.5,71.5,30.16,East,91,0.0,3.1,79,0.00,,---,0.00,VWS V14.00,2013-06-21 12:57:00,
2013-06-21 09:03:00,78.7,71.3,30.16,SSW,203,0.0,2.7,78,0.00,,---,0.00,VWS V14.00,2013-06-21 13:03:00,
2013-06-21 09:08:00,78.9,71.1,30.16,SSW,203,0.0,2.7,77,0.00,,---,0.00,VWS V14.00,2013-06-21 13:08:00,
2013-06-21 09:13:00,79.1,71.2,30.16,ENE,78,2.2,2.2,77,0.00,,---,0.00,VWS V14.00,2013-06-21 13:13:00,
2013-06-21 09:18:00,79.1,70.8,30.16,SSE,150,0.0,2.2,76,0.00,,---,0.00,VWS V14.00,2013-06-21 13:18:00,
2013-06-21 09:23:00,79.2,71.0,30.16,East,87,0.0,0.0,76,0.00,,---,0.00,VWS V14.00,2013-06-21 13:23:00,
2013-06-21 09:28:00,79.4,71.2,30.16,WSW,251,2.2,3.1,76,0.00,,---,0.00,VWS V14.00,2013-06-21 13:28:00,
2013-06-21 09:33:00,79.8,71.2,30.16,ESE,123,2.2,4.0,75,0.00,,---,0.00,VWS V14.00,2013-06-21 13:33:00,
2013-06-21 09:38:00,80.3,70.5,30.16,South,191,0.0,4.0,72,0.00,,---,0.00,VWS V14.00,2013-06-21 13:38:00,
2013-06-21 09:44:00,80.3,70.5,30.16,SE,145,2.7,3.6,72,0.00,,---,0.00,VWS V14.00,2013-06-21 13:44:00,
2013-06-21 09:49:00,80.9,71.0,30.16,East,98,0.0,3.6,72,0.00,,---,0.00,VWS V14.00,2013-06-21 13:49:00,
2013-06-21 09:54:00,81.4,71.1,30.16,East,89,2.7,3.1,71,0.00,,---,0.00,VWS V14.00,2013-06-21 13:54:00,
2013-06-21 09:59:00,81.8,71.4,30.16,East,97,0.0,3.6,71,0.00,,---,0.00,VWS V14.00,2013-06-21 13:59:00,
2013-06-21 10:05:00,82.5,71.7,30.16,ENE,57,2.7,4.9,70,0.00,,---,0.00,VWS V14.00,2013-06-21 14:05:00,
2013-06-21 10:10:00,83.2,72.0,30.16,South,174,3.6,4.9,69,0.00,,---,0.00,VWS V14.00,2013-06-21 14:10:00,
2013-06-21 10:15:00,83.7,71.6,30.16,North,350,2.2,3.6,67,0.00,,---,0.00,VWS V14.00,2013-06-21 14:15:00,
2013-06-21 10:20:00,84.3,71.7,30.16,SE,140,3.1,3.1,66,0.00,,---,0.00,VWS V14.00,2013-06-21 14:20:00,
2013-06-21 10:25:00,84.6,71.6,30.16,South,179,2.2,3.1,65,0.00,,---,0.00,VWS V14.00,2013-06-21 14:25:00,
2013-06-21 10:30:00,84.8,71.3,30.16,SSW,211,2.7,5.8,64,0.00,,---,0.00,VWS V14.00,2013-06-21 14:30:00,
2013-06-21 10:35:00,85.0,71.5,30.16,South,180,2.7,5.8,64,0.00,,---,0.00,VWS V14.00,2013-06-21 14:35:00,
2013-06-21 10:40:00,85.0,71.0,30.16,SSW,196,3.1,3.1,63,0.00,,---,0.00,VWS V14.00,2013-06-21 14:40:00,
2013-06-21 10:45:00,85.4,71.3,30.16,South,176,4.0,4.0,63,0.00,,---,0.00,VWS V14.00,2013-06-21 14:45:00,
2013-06-21 10:50:00,85.4,71.3,30.16,East,91,2.7,3.1,63,0.00,,---,0.00,VWS V14.00,2013-06-21 14:50:00,
2013-06-21 10:55:00,85.9,71.8,30.16,SE,128,2.7,3.6,63,0.00,,---,0.00,VWS V14.00,2013-06-21 14:55:00,
2013-06-21 11:01:00,86.6,72.1,30.16,WSW,237,3.6,6.3,62,0.00,,---,0.00,VWS V14.00,2013-06-21 15:01:00,
2013-06-21 11:06:00,87.2,71.6,30.16,SSW,204,3.1,8.1,60,0.00,,---,0.00,VWS V14.00,2013-06-21 15:06:00,
2013-06-21 11:12:00,87.9,72.3,30.16,SW,227,2.2,6.3,60,0.00,,---,0.00,VWS V14.00,2013-06-21 15:12:00,
2013-06-21 11:17:00,88.2,72.6,30.16,SE,135,2.7,6.3,60,0.00,,---,0.00,VWS V14.00,2013-06-21 15:17:00,
2013-06-21 11:22:00,88.4,72.3,30.16,South,183,5.4,7.6,59,0.00,,---,0.00,VWS V14.00,2013-06-21 15:22:00,
2013-06-21 11:27:00,88.6,72.4,30.16,South,185,4.9,7.6,59,0.00,,---,0.00,VWS V14.00,2013-06-21 15:27:00,
2013-06-21 11:32:00,89.0,72.3,30.16,SW,215,4.0,4.9,58,0.00,,---,0.00,VWS V14.00,2013-06-21 15:32:00,
2013-06-21 11:38:00,89.3,72.6,30.16,SSW,197,7.6,8.3,58,0.00,,---,0.00,VWS V14.00,2013-06-21 15:38:00,
2013-06-21 11:43:00,89.9,73.1,30.16,SSW,209,4.0,6.3,58,0.00,,---,0.00,VWS V14.00,2013-06-21 15:43:00,
2013-06-21 11:48:00,90.4,73.1,30.16,South,173,2.7,6.3,57,0.00,,---,0.00,VWS V14.00,2013-06-21 15:48:00,
2013-06-21 11:53:00,90.0,72.2,30.16,ESE,105,2.7,8.1,56,0.00,,---,0.00,VWS V14.00,2013-06-21 15:53:00,
2013-06-21 11:58:00,89.5,71.7,30.16,SW,217,4.0,8.1,56,0.00,,---,0.00,VWS V14.00,2013-06-21 15:58:00,
2013-06-21 12:03:00,89.1,71.9,30.16,SE,146,2.7,5.8,57,0.00,,---,0.00,VWS V14.00,2013-06-21 16:03:00,
2013-06-21 12:09:00,89.1,71.4,30.16,SSW,205,3.1,6.3,56,0.00,,---,0.00,VWS V14.00,2013-06-21 16:09:00,
2013-06-21 12:14:00,89.0,71.2,30.16,SW,216,5.4,8.1,56,0.00,,---,0.00,VWS V14.00,2013-06-21 16:14:00,
2013-06-21 12:19:00,89.0,71.8,30.16,South,176,2.7,8.1,57,0.00,,---,0.00,VWS V14.00,2013-06-21 16:19:00,
2013-06-21 12:24:00,89.3,71.6,30.16,SSE,164,3.6,8.1,56,0.00,,---,0.00,VWS V14.00,2013-06-21 16:24:00,
2013-06-21 12:29:00,90.2,72.4,30.16,South,176,4.0,8.7,56,0.00,,---,0.00,VWS V14.00,2013-06-21 16:29:00,
2013-06-21 12:35:00,90.9,72.0,30.16,South,181,4.0,5.8,54,0.00,,---,0.00,VWS V14.00,2013-06-21 16:35:00,
2013-06-21 12:40:00,91.5,71.4,30.16,SSW,201,6.3,6.3,52,0.00,,---,0.00,VWS V14.00,2013-06-21 16:40:00,
2013-06-21 12:46:00,91.7,71.0,30.16,SW,218,2.2,10.5,51,0.00,,---,0.00,VWS V14.00,2013-06-21 16:46:00,
2013-06-21 12:51:00,91.7,71.0,30.16,South,182,3.1,4.9,51,0.00,,---,0.00,VWS V14.00,2013-06-21 16:51:00,
2013-06-21 12:56:00,91.8,71.2,30.16,South,186,4.9,8.3,51,0.00,,---,0.00,VWS V14.00,2013-06-21 16:56:00,
2013-06-21 13:01:00,91.5,70.8,30.16,WSW,247,5.4,5.8,51,0.00,,---,0.00,VWS V14.00,2013-06-21 17:01:00,
2013-06-21 13:07:00,90.8,70.2,30.16,SSW,205,5.4,7.6,51,0.00,,---,0.00,VWS V14.00,2013-06-21 17:07:00,
2013-06-21 13:12:00,91.1,70.5,30.16,South,188,7.6,8.1,51,0.00,,---,0.00,VWS V14.00,2013-06-21 17:12:00,
2013-06-21 13:17:00,91.1,69.9,30.16,SSW,202,4.0,8.1,50,0.00,,---,0.00,VWS V14.00,2013-06-21 17:17:00,
2013-06-21 13:22:00,90.6,69.4,30.16,SW,231,4.0,6.7,50,0.00,,---,0.00,VWS V14.00,2013-06-21 17:22:00,
2013-06-21 13:27:00,90.6,70.6,30.13,SSE,148,3.6,8.1,52,0.00,,---,0.00,VWS V14.00,2013-06-21 17:27:00,
2013-06-21 13:33:00,91.3,70.7,30.13,SW,219,4.5,5.4,51,0.00,,---,0.00,VWS V14.00,2013-06-21 17:33:00,
2013-06-21 13:38:00,91.7,70.4,30.13,SSW,200,5.8,10.1,50,0.00,,---,0.00,VWS V14.00,2013-06-21 17:38:00,
2013-06-21 13:44:00,91.5,70.2,30.16,SSW,193,7.6,8.7,50,0.00,,---,0.00,VWS V14.00,2013-06-21 17:44:00,
2013-06-21 13:46:00,91.3,70.1,30.16,WSW,240,2.7,8.7,50,0.00,,---,0.00,VWS V14.00,2013-06-21 17:46:00,
2013-06-21 13:47:00,91.5,70.2,30.16,SE,140,5.8,8.7,50,0.00,,---,0.00,VWS V14.00,2013-06-21 17:47:00,
2013-06-21 13:48:00,91.5,70.2,30.16,South,182,5.8,8.7,50,0.00,,---,0.00,VWS V14.00,2013-06-21 17:48:00,
2013-06-21 13:54:00,91.8,70.6,30.16,SSW,195,8.3,8.3,50,0.00,,---,0.00,VWS V14.00,2013-06-21 17:54:00,
2013-06-21 13:59:00,92.4,70.5,30.16,South,187,7.6,8.3,49,0.00,,---,0.00,VWS V14.00,2013-06-21 17:59:00,
2013-06-21 14:04:00,92.4,70.5,30.16,SW,233,4.9,9.6,49,0.00,,---,0.00,VWS V14.00,2013-06-21 18:04:00,
2013-06-21 14:09:00,92.4,71.1,30.16,WSW,237,3.1,9.6,50,0.00,,---,0.00,VWS V14.00,2013-06-21 18:09:00,
2013-06-21 14:14:00,92.9,71.0,30.13,South,187,6.3,8.3,49,0.00,,---,0.00,VWS V14.00,2013-06-21 18:14:00,
2013-06-21 14:19:00,93.3,71.9,30.13,SSW,204,7.6,8.3,50,0.00,,---,0.00,VWS V14.00,2013-06-21 18:19:00,
2013-06-21 14:23:00,93.3,70.7,30.13,SSW,198,8.1,8.3,48,0.00,,---,0.00,VWS V14.00,2013-06-21 18:23:00,
2013-06-21 14:24:00,93.5,71.4,30.13,SSW,192,8.1,8.3,49,0.00,,---,0.00,VWS V14.00,2013-06-21 18:24:00,
2013-06-21 14:26:00,93.3,71.3,30.13,SSW,200,6.7,8.3,49,0.00,,---,0.00,VWS V14.00,2013-06-21 18:26:00,
2013-06-21 14:31:00,93.3,71.3,30.13,SSW,208,5.8,6.3,49,0.00,,---,0.00,VWS V14.00,2013-06-21 18:31:00,
2013-06-21 14:32:00,93.5,71.4,30.13,SW,214,9.6,9.6,49,0.00,,---,0.00,VWS V14.00,2013-06-21 18:32:00,
2013-06-21 14:38:00,93.6,71.6,30.13,SSE,165,3.6,11.0,49,0.00,,---,0.00,VWS V14.00,2013-06-21 18:38:00,
2013-06-21 14:43:00,93.8,71.2,30.13,South,185,8.3,8.3,48,0.00,,---,0.00,VWS V14.00,2013-06-21 18:43:00,
2013-06-21 14:45:00,93.6,71.0,30.13,South,184,6.3,8.3,48,0.00,,---,0.00,VWS V14.00,2013-06-21 18:45:00,
2013-06-21 14:46:00,93.6,70.4,30.13,South,176,7.6,8.3,47,0.00,,---,0.00,VWS V14.00,2013-06-21 18:46:00,
2013-06-21 14:48:00,93.6,71.0,30.13,SSE,167,3.1,8.7,48,0.00,,---,0.00,VWS V14.00,2013-06-21 18:48:00,
2013-06-21 14:50:00,93.6,71.0,30.13,ESE,117,6.3,6.3,48,0.00,,---,0.00,VWS V14.00,2013-06-21 18:50:00,
2013-06-21 14:51:00,93.6,71.0,30.13,South,186,6.3,6.3,48,0.00,,---,0.00,VWS V14.00,2013-06-21 18:51:00,
2013-06-21 14:56:00,93.8,71.2,30.13,ESE,102,3.6,6.3,48,0.00,,---,0.00,VWS V14.00,2013-06-21 18:56:00,
2013-06-21 15:01:00,94.2,70.9,30.13,South,183,4.0,6.7,47,0.00,,---,0.00,VWS V14.00,2013-06-21 19:01:00,
2013-06-21 15:07:00,94.4,71.0,30.13,SSW,194,6.3,8.7,47,0.00,,---,0.00,VWS V14.00,2013-06-21 19:07:00,
2013-06-21 15:12:00,94.5,70.6,30.13,SSW,192,5.8,8.1,46,0.00,,---,0.00,VWS V14.00,2013-06-21 19:12:00,
2013-06-21 15:17:00,94.7,70.7,30.13,SSW,208,8.3,12.3,46,0.00,,---,0.00,VWS V14.00,2013-06-21 19:17:00,
2013-06-21 15:21:00,94.5,70.6,30.13,SSW,211,3.1,7.6,46,0.00,,---,0.00,VWS V14.00,2013-06-21 19:21:00,
2013-06-21 15:26:00,94.7,71.4,30.13,South,186,5.4,11.4,47,0.00,,---,0.00,VWS V14.00,2013-06-21 19:26:00,
2013-06-21 15:32:00,95.3,71.2,30.13,SE,124,3.6,5.4,46,0.00,,---,0.00,VWS V14.00,2013-06-21 19:32:00,
2013-06-21 15:37:00,95.4,71.4,30.13,South,185,4.9,10.5,46,0.00,,---,0.00,VWS V14.00,2013-06-21 19:37:00,
2013-06-21 15:42:00,95.4,71.4,30.13,SSE,168,5.8,11.0,46,0.00,,---,0.00,VWS V14.00,2013-06-21 19:42:00,
2013-06-21 15:43:00,95.4,71.4,30.13,WSW,237,4.0,11.0,46,0.00,,---,0.00,VWS V14.00,2013-06-21 19:43:00,
2013-06-21 15:48:00,95.4,71.4,30.13,SSW,201,4.0,11.0,46,0.00,,---,0.00,VWS V14.00,2013-06-21 19:48:00,
2013-06-21 15:53:00,95.1,70.4,30.13,SW,224,5.8,8.1,45,0.00,,---,0.00,VWS V14.00,2013-06-21 19:53:00,
2013-06-21 15:58:00,94.0,68.8,30.13,SE,138,3.6,11.0,44,0.00,,---,0.00,VWS V14.00,2013-06-21 19:58:00,
2013-06-21 16:03:00,93.3,70.1,30.13,SSE,156,4.9,8.3,47,0.00,,---,0.00,VWS V14.00,2013-06-21 20:03:00,
2013-06-21 16:08:00,92.9,69.1,30.13,SW,216,8.7,11.4,46,0.00,,---,0.00,VWS V14.00,2013-06-21 20:08:00,
2013-06-21 16:14:00,92.6,69.4,30.10,SE,140,4.0,8.7,47,0.00,,---,0.00,VWS V14.00,2013-06-21 20:14:00,
2013-06-21 16:19:00,93.3,70.7,30.10,SE,131,4.0,10.5,48,0.00,,---,0.00,VWS V14.00,2013-06-21 20:19:00,
2013-06-21 16:20:00,93.6,71.0,30.10,South,189,6.3,10.5,48,0.00,,---,0.00,VWS V14.00,2013-06-21 20:20:00,
2013-06-21 16:25:00,93.8,70.6,30.10,ESE,117,5.4,12.3,47,0.00,,---,0.00,VWS V14.00,2013-06-21 20:25:00,
2013-06-21 16:30:00,94.2,70.2,30.10,South,185,2.2,4.0,46,0.00,,---,0.00,VWS V14.00,2013-06-21 20:30:00,
2013-06-21 16:35:00,94.7,70.7,30.10,SSE,150,4.0,8.7,46,0.00,,---,0.00,VWS V14.00,2013-06-21 20:35:00,
2013-06-21 16:40:00,94.2,69.6,30.10,SSE,163,8.3,9.2,45,0.00,,---,0.00,VWS V14.00,2013-06-21 20:40:00,
2013-06-21 16:46:00,93.8,70.6,30.10,SW,217,8.7,9.2,47,0.00,,---,0.00,VWS V14.00,2013-06-21 20:46:00,
2013-06-21 16:51:00,94.2,70.2,30.10,SSW,204,8.1,8.7,46,0.00,,---,0.00,VWS V14.00,2013-06-21 20:51:00,
2013-06-21 16:56:00,94.4,70.4,30.10,South,187,8.1,8.7,46,0.00,,---,0.00,VWS V14.00,2013-06-21 20:56:00,
2013-06-21 17:01:00,94.7,70.7,30.10,South,184,5.8,6.3,46,0.00,,---,0.00,VWS V14.00,2013-06-21 21:01:00,
2013-06-21 17:05:00,94.7,69.4,30.10,WSW,255,3.6,10.1,44,0.00,,---,0.00,VWS V14.00,2013-06-21 21:05:00,
2013-06-21 17:10:00,94.9,69.6,30.10,ESE,107,3.1,10.1,44,0.00,,---,0.00,VWS V14.00,2013-06-21 21:10:00,
2013-06-21 17:15:00,95.3,69.9,30.10,WSW,240,4.9,8.7,44,0.00,,---,0.00,VWS V14.00,2013-06-21 21:15:00,
2013-06-21 17:20:00,95.4,69.4,30.10,SSE,159,4.0,6.3,43,0.00,,---,0.00,VWS V14.00,2013-06-21 21:20:00,
2013-06-21 17:25:00,95.4,69.4,30.10,SW,221,3.1,6.3,43,0.00,,---,0.00,VWS V14.00,2013-06-21 21:25:00,
2013-06-21 17:30:00,95.3,68.6,30.10,SW,223,5.4,8.3,42,0.00,,---,0.00,VWS V14.00,2013-06-21 21:30:00,
2013-06-21 17:35:00,94.9,68.2,30.10,SSW,197,7.6,10.1,42,0.00,,---,0.00,VWS V14.00,2013-06-21 21:35:00,
2013-06-21 17:40:00,94.7,68.1,30.10,South,181,8.7,8.7,42,0.00,,---,0.00,VWS V14.00,2013-06-21 21:40:00,
2013-06-21 17:47:00,94.5,68.6,30.10,SSW,195,8.1,10.1,43,0.00,,---,0.00,VWS V14.00,2013-06-21 21:47:00,
2013-06-21 17:52:00,94.9,68.9,30.10,ESE,108,3.1,8.3,43,0.00,,---,0.00,VWS V14.00,2013-06-21 21:52:00,
2013-06-21 17:57:00,94.5,67.9,30.10,SSE,150,5.4,8.3,42,0.00,,---,0.00,VWS V14.00,2013-06-21 21:57:00,
2013-06-21 18:02:00,94.2,67.6,30.10,SSE,164,8.7,8.7,42,0.00,,---,0.00,VWS V14.00,2013-06-21 22:02:00,
2013-06-21 18:08:00,94.0,68.8,30.10,East,96,5.4,10.5,44,0.00,,---,0.00,VWS V14.00,2013-06-21 22:08:00,
2013-06-21 18:13:00,94.2,68.3,30.10,SSE,163,3.6,10.1,43,0.00,,---,0.00,VWS V14.00,2013-06-21 22:13:00,
2013-06-21 18:18:00,94.4,69.1,30.10,SSE,160,8.3,11.0,44,0.00,,---,0.00,VWS V14.00,2013-06-21 22:18:00,
2013-06-21 18:23:00,94.0,66.7,30.10,South,191,5.4,8.1,41,0.00,,---,0.00,VWS V14.00,2013-06-21 22:23:00,
2013-06-21 18:28:00,93.8,67.9,30.07,SSW,205,5.8,10.5,43,0.00,,---,0.00,VWS V14.00,2013-06-21 22:28:00,
2013-06-21 18:33:00,93.8,67.9,30.07,SSW,193,5.4,8.3,43,0.00,,---,0.00,VWS V14.00,2013-06-21 22:33:00,
2013-06-21 18:38:00,93.6,67.8,30.07,South,169,4.0,10.1,43,0.00,,---,0.00,VWS V14.00,2013-06-21 22:38:00,
2013-06-21 18:43:00,93.8,68.6,30.07,SSW,199,5.8,8.7,44,0.00,,---,0.00,VWS V14.00,2013-06-21 22:43:00,
2013-06-21 18:48:00,93.6,68.5,30.07,SE,124,5.4,8.7,44,0.00,,---,0.00,VWS V14.00,2013-06-21 22:48:00,
2013-06-21 18:53:00,93.3,68.8,30.07,SSW,198,6.3,11.0,45,0.00,,---,0.00,VWS V14.00,2013-06-21 22:53:00,
2013-06-21 18:59:00,93.1,68.0,30.07,SSW,194,6.3,11.0,44,0.00,,---,0.00,VWS V14.00,2013-06-21 22:59:00,
2013-06-21 19:04:00,93.1,68.6,30.07,SSW,205,6.3,8.7,45,0.00,,---,0.00,VWS V14.00,2013-06-21 23:04:00,
2013-06-21 19:09:00,92.7,68.9,30.07,SE,144,4.0,8.7,46,0.00,,---,0.00,VWS V14.00,2013-06-21 23:09:00,
2013-06-21 19:14:00,92.4,68.6,30.07,SSW,194,8.1,11.0,46,0.00,,---,0.00,VWS V14.00,2013-06-21 23:14:00,
2013-06-21 19:19:00,91.8,68.8,30.07,SW,230,5.8,11.0,47,0.00,,---,0.00,VWS V14.00,2013-06-21 23:19:00,
2013-06-21 19:24:00,91.5,68.4,30.07,SE,141,6.3,8.3,47,0.00,,---,0.00,VWS V14.00,2013-06-21 23:24:00,
2013-06-21 19:29:00,90.9,68.6,30.07,SSW,210,3.6,8.3,48,0.00,,---,0.00,VWS V14.00,2013-06-21 23:29:00,
2013-06-21 19:34:00,90.8,68.4,30.07,SSW,198,7.6,8.3,48,0.00,,---,0.00,VWS V14.00,2013-06-21 23:34:00,
2013-06-21 19:39:00,90.4,68.1,30.07,SSE,159,8.7,8.7,48,0.00,,---,0.00,VWS V14.00,2013-06-21 23:39:00,
2013-06-21 19:44:00,90.0,68.3,30.07,SSW,193,4.0,8.7,49,0.00,,---,0.00,VWS V14.00,2013-06-21 23:44:00,
2013-06-21 19:50:00,89.9,68.2,30.07,South,184,5.8,8.7,49,0.00,,---,0.00,VWS V14.00,2013-06-21 23:50:00,
2013-06-21 19:55:00,89.7,68.0,30.07,SSE,163,3.6,8.3,49,0.00,,---,0.00,VWS V14.00,2013-06-21 23:55:00,
2013-06-21 20:00:00,89.5,67.8,30.07,South,182,4.0,4.9,49,0.00,,---,0.00,VWS V14.00,2013-06-22 00:00:00,
2013-06-21 20:05:00,89.3,67.7,30.07,SSW,203,5.4,8.3,49,0.00,,---,0.00,VWS V14.00,2013-06-22 00:05:00,
2013-06-21 20:10:00,89.1,67.5,30.07,South,182,3.6,4.0,49,0.00,,---,0.00,VWS V14.00,2013-06-22 00:10:00,
2013-06-21 20:15:00,89.0,67.9,30.07,SE,136,3.1,8.1,50,0.00,,---,0.00,VWS V14.00,2013-06-22 00:15:00,
2013-06-21 20:21:00,88.8,67.8,30.07,SW,217,5.4,5.4,50,0.00,,---,0.00,VWS V14.00,2013-06-22 00:21:00,
2013-06-21 20:26:00,88.8,68.3,30.07,SSW,207,6.3,6.7,51,0.00,,---,0.00,VWS V14.00,2013-06-22 00:26:00,
2013-06-21 20:31:00,88.6,68.2,30.07,SSE,162,5.4,5.4,51,0.00,,---,0.00,VWS V14.00,2013-06-22 00:31:00,
2013-06-21 20:36:00,88.6,68.7,30.07,SSW,195,5.8,7.6,52,0.00,,---,0.00,VWS V14.00,2013-06-22 00:36:00,
2013-06-21 20:41:00,88.4,68.6,30.07,SSE,157,2.2,3.6,52,0.00,,---,0.00,VWS V14.00,2013-06-22 00:41:00,
2013-06-21 20:46:00,88.1,68.2,30.07,SSE,168,3.1,4.0,52,0.00,,---,0.00,VWS V14.00,2013-06-22 00:46:00,
2013-06-21 20:51:00,87.7,67.9,30.07,South,191,6.3,6.3,52,0.00,,---,0.00,VWS V14.00,2013-06-22 00:51:00,
2013-06-21 20:57:00,87.2,67.4,30.07,SSE,159,4.9,6.3,52,0.00,,---,0.00,VWS V14.00,2013-06-22 00:57:00,
2013-06-21 21:02:00,86.8,67.6,30.07,South,176,6.3,6.3,53,0.00,,---,0.00,VWS V14.00,2013-06-22 01:02:00,
2013-06-21 21:07:00,86.4,67.3,30.07,SSW,198,3.6,6.3,53,0.00,,---,0.00,VWS V14.00,2013-06-22 01:07:00,
2013-06-21 21:12:00,86.1,67.5,30.07,SSW,211,3.1,8.3,54,0.00,,---,0.00,VWS V14.00,2013-06-22 01:12:00,
2013-06-21 21:17:00,85.9,67.3,30.07,SW,220,0.0,8.3,54,0.00,,---,0.00,VWS V14.00,2013-06-22 01:17:00,
2013-06-21 21:22:00,85.5,67.5,30.07,SSE,168,2.7,2.7,55,0.00,,---,0.00,VWS V14.00,2013-06-22 01:22:00,
2013-06-21 21:27:00,85.2,67.2,30.07,SSW,205,2.7,3.6,55,0.00,,---,0.00,VWS V14.00,2013-06-22 01:27:00,
2013-06-21 21:32:00,84.8,67.4,30.07,SSE,160,4.0,4.0,56,0.00,,---,0.00,VWS V14.00,2013-06-22 01:32:00,
2013-06-21 21:37:00,84.6,67.2,30.07,SE,142,0.0,4.0,56,0.00,,---,0.00,VWS V14.00,2013-06-22 01:37:00,
2013-06-21 21:42:00,84.3,67.4,30.07,South,170,2.7,4.0,57,0.00,,---,0.00,VWS V14.00,2013-06-22 01:42:00,
2013-06-21 21:48:00,83.9,67.6,30.07,SE,137,0.0,4.0,58,0.00,,---,0.00,VWS V14.00,2013-06-22 01:48:00,
2013-06-21 21:53:00,83.4,67.6,30.07,SSE,150,3.1,4.0,59,0.00,,---,0.00,VWS V14.00,2013-06-22 01:53:00,
2013-06-21 21:58:00,83.0,67.7,30.07,SE,139,2.7,4.9,60,0.00,,---,0.00,VWS V14.00,2013-06-22 01:58:00,
2013-06-21 22:03:00,82.7,67.9,30.07,South,187,2.2,4.0,61,0.00,,---,0.00,VWS V14.00,2013-06-22 02:03:00,
2013-06-21 22:08:00,82.5,67.7,30.07,SSW,202,2.7,4.0,61,0.00,,---,0.00,VWS V14.00,2013-06-22 02:08:00,
2013-06-21 22:13:00,82.5,68.2,30.07,SSE,151,2.7,4.0,62,0.00,,---,0.00,VWS V14.00,2013-06-22 02:13:00,
2013-06-21 22:18:00,82.3,68.0,30.07,SSE,160,0.0,5.4,62,0.00,,---,0.00,VWS V14.00,2013-06-22 02:18:00,
2013-06-21 22:23:00,82.3,68.0,30.07,South,169,2.2,3.6,62,0.00,,---,0.00,VWS V14.00,2013-06-22 02:23:00,
2013-06-21 22:28:00,82.1,68.3,30.07,South,177,0.0,3.6,63,0.00,,---,0.00,VWS V14.00,2013-06-22 02:28:00,
2013-06-21 22:33:00,81.9,68.1,30.07,SE,138,0.0,0.0,63,0.00,,---,0.00,VWS V14.00,2013-06-22 02:33:00,
2013-06-21 22:38:00,81.6,67.8,30.07,SE,143,2.7,5.4,63,0.00,,---,0.00,VWS V14.00,2013-06-22 02:38:00,
2013-06-21 22:43:00,81.4,68.1,30.10,South,170,0.0,3.6,64,0.00,,---,0.00,VWS V14.00,2013-06-22 02:43:00,
2013-06-21 22:48:00,81.2,67.9,30.10,SSE,155,2.7,3.6,64,0.00,,---,0.00,VWS V14.00,2013-06-22 02:48:00,
2013-06-21 22:54:00,81.0,68.2,30.10,SSE,156,3.1,3.1,65,0.00,,---,0.00,VWS V14.00,2013-06-22 02:54:00,
2013-06-21 22:59:00,80.9,68.4,30.10,SW,223,2.7,3.6,66,0.00,,---,0.00,VWS V14.00,2013-06-22 02:59:00,
2013-06-21 23:04:00,80.7,68.3,30.10,South,179,2.2,3.6,66,0.00,,---,0.00,VWS V14.00,2013-06-22 03:04:00,
2013-06-21 23:09:00,80.7,68.3,30.10,SSW,199,0.0,3.6,66,0.00,,---,0.00,VWS V14.00,2013-06-22 03:09:00,
2013-06-21 23:14:00,80.5,68.5,30.10,SSW,201,0.0,4.9,67,0.00,,---,0.00,VWS V14.00,2013-06-22 03:14:00,
2013-06-21 23:19:00,80.5,68.5,30.10,SE,131,3.1,4.9,67,0.00,,---,0.00,VWS V14.00,2013-06-22 03:19:00,
2013-06-21 23:24:00,80.5,68.5,30.10,SE,132,0.0,3.6,67,0.00,,---,0.00,VWS V14.00,2013-06-22 03:24:00,
2013-06-21 23:29:00,80.3,68.4,30.10,SE,137,0.0,3.6,67,0.00,,---,0.00,VWS V14.00,2013-06-22 03:29:00,
2013-06-21 23:34:00,80.1,68.6,30.10,South,172,2.7,4.9,68,0.00,,---,0.00,VWS V14.00,2013-06-22 03:34:00,
2013-06-21 23:39:00,80.1,68.6,30.10,SE,146,2.7,5.4,68,0.00,,---,0.00,VWS V14.00,2013-06-22 03:39:00,
2013-06-21 23:44:00,80.0,68.5,30.10,SSE,157,2.7,3.6,68,0.00,,---,0.00,VWS V14.00,2013-06-22 03:44:00,
2013-06-21 23:49:00,79.8,68.7,30.10,SSE,163,0.0,4.0,69,0.00,,---,0.00,VWS V14.00,2013-06-22 03:49:00,
2013-06-21 23:55:00,79.6,68.5,30.10,SSE,163,0.0,0.0,69,0.00,,---,0.00,VWS V14.00,2013-06-22 03:55:00,